This is the latest recevied weather packets stored in our database for station/object K4JOZ. If no packets are shown the sender has not sent any weather packets the latest 10 day(s).
| Time | Temp. | Humidity | Pressure | Rain* | Wind** | Luminosity | Snow |
|---|---|---|---|---|---|---|---|
| 1777631816 | 5.56° C | 26% | 1012.6 hPa | 0 mm | - | - | - |
| 1777630916 | 5.56° C | 27% | 1012.7 hPa | 0 mm | - | - | - |
| 1777630016 | 5.56° C | 26% | 1012.8 hPa | 0 mm | - | - | - |
| 1777629116 | 5.56° C | 26% | 1012.8 hPa | 0 mm | - | - | - |
| 1777628216 | 5° C | 27% | 1012.6 hPa | 0 mm | - | - | - |
| 1777627316 | 5° C | 31% | 1012.9 hPa | 0 mm | - | - | - |
| 1777626416 | 5° C | 34% | 1013.1 hPa | 0 mm | - | - | - |
| 1777625516 | 5° C | 35% | 1012.8 hPa | 0 mm | - | - | - |
| 1777624616 | 5° C | 38% | 1012.8 hPa | 0 mm | - | - | - |
| 1777623716 | 5.56° C | 47% | 1012.8 hPa | 0 mm | - | - | - |
| 1777622816 | 5.56° C | 52% | 1012.9 hPa | 0 mm | - | - | - |
| 1777621916 | 6.11° C | 52% | 1012.7 hPa | 0 mm | - | - | - |
| 1777621016 | 6.67° C | 56% | 1012.8 hPa | 0 mm | - | - | - |
| 1777620116 | 7.22° C | 57% | 1012.6 hPa | 0 mm | - | - | - |
| 1777619216 | 7.22° C | 53% | 1012.6 hPa | 0 mm | - | - | - |
| 1777618316 | 7.22° C | 54% | 1013 hPa | 0 mm | - | - | - |
| 1777617416 | 7.78° C | 53% | 1013.1 hPa | 0 mm | - | - | - |
| 1777616516 | 7.22° C | 45% | 1013.1 hPa | 0 mm | - | - | - |
| 1777615616 | 6.67° C | 29% | 1013.3 hPa | 0 mm | - | - | - |
| 1777614716 | 6.11° C | 30% | 1013.4 hPa | 0 mm | - | - | - |
| 1777613816 | 6.11° C | 35% | 1013.6 hPa | 0 mm | - | - | - |
| 1777612916 | 6.11° C | 39% | 1013.6 hPa | 0 mm | - | - | - |
| 1777612016 | 6.11° C | 43% | 1013.6 hPa | 0 mm | - | - | - |
| 1777611116 | 6.67° C | 46% | 1013.5 hPa | 0 mm | - | - | - |
| 1777610216 | 6.67° C | 49% | 1013.4 hPa | 0 mm | - | - | - |
* Rain latest hour (hover to see other rain measurements)
** Current wind speed in m/s (hover to see current wind gust speed)